{"data":{"norad_id":55951,"epoch":"2026-09-20T22:00:03.000096Z","epoch_age_seconds":70096,"freshness":"FRESH","line1":"1 55951U 23037AP  26263.91670139  .00032269  00000+0  25403-2 0  9992","line2":"2 55951  70.0013 152.0311 0003996 275.1362 245.1365 15.00671298  5767","mean_motion":15.00671298,"eccentricity":0.0003996,"inclination_deg":70.0013,"raan_deg":152.0311,"arg_perigee_deg":275.1362,"mean_anomaly_deg":245.1365,"bstar":0.0025403,"rev_number":576,"period_min":95.957056146749,"perigee_km":562.05062737776,"apogee_km":567.59944263614,"semimajor_km":6942.962035007,"source":"CELESTRAK","updated_at":"2026-09-21T09:00:33.345854Z"}}